Other Public Products
Issued by NWS Grand Forks, ND

Home | Current Version | Previous Version | Graphics & Text | Print | Product List | Glossary On
Versions: 1 2 3 4 5 6 7 8 9 10 11 12 13 14 15 16 17 18 19 20 21 22 23 24 25 26 27 28 29 30 31 32 33 34 35 36 37 38 39 40 41 42 43 44 45 46 47 48 49 50
000
FPUS83 KFGF 201510
OPUFGF
PRAIRIE TO PINES WEATHER ROUNDUP
NATIONAL WEATHER SERVICE EASTERN NORTH DAKOTA/GRAND FORKS ND
1000 AM CDT SUN APR 20 2014

 **SATELLITE DATA USED TO AUGMENT SKY COVER AT AUTOMATED STATIONS**
 *****  WEATHER ACROSS EASTERN NORTH DAKOTA  *****

CITY           SKY/WX    TMP DP  RH WIND       PRES   REMARKS
GRAND FORKS    MOSUNNY   47  35  63 S5        30.02F
GRAND FORKS AF SUNNY     48  37  64 S7        30.02F
GRAND CITY NWS   N/A     48 N/A N/A S5          N/A
BUXTON         NOT AVBL
DEVILS LAKE    MOSUNNY   45  36  70 S8        29.98F
FARGO          SUNNY     54  35  48 S7        30.01F
WAHPETON ARPT  SUNNY     54  34  47 SE9       30.02S
$$

 *****  WEATHER ACROSS CENTRAL AND WESTERN NORTH DAKOTA  *****

CITY           SKY/WX    TMP DP  RH WIND       PRES   REMARKS
JAMESTOWN      SUNNY     51  38  60 S13       29.97F
BISMARCK       SUNNY     54 N/A N/A SE10      29.95F
MINOT          PTSUNNY   50  37  61 SE5       29.89F
MINOT AFB      PTSUNNY   44  39  83 SE8       29.88F
GARRISON         N/A     49  37  63 S9        29.91F
WILLISTON      PTSUNNY   51  32  48 S8        29.84F
DICKINSON      PTSUNNY   55  29  36 S13       29.87S
HETTINGER      MOSUNNY   55  28  35 S8        29.92F
$$

 *****  OTHER OBSERVATIONS NORTHEAST NORTH DAKOTA  *****

CITY           SKY/WX    TMP DP  RH WIND       PRES   REMARKS
WALHALLA         N/A     43  32  65 NE7       30.03S
LANGDON        FAIR      46  34  61 SE12      29.99S
CAVALIER       FAIR      41  34  75 E6        30.03S
GRAFTON        FAIR      43  34  70 E3        30.03S
CANDO          FAIR      45  36  70 SE9       29.98S
FORT TOTTEN      N/A     50  37  61 S15       29.95S
ROLLA          FAIR      41  37  87 S9        29.97F
RUGBY          FAIR      46  37  71 SE8       29.94S
 ***** THE ABOVE OBSERVATIONS ARE NON NWS ARE NOT QUALITY
        CONTROLLED AND MAY MIS-REPORT RAIN FOR SNOW...
$$

 *****  OTHER OBSERVATIONS SOUTHEAST NORTH DAKOTA *****

CITY           SKY/WX    TMP DP  RH WIND       PRES   REMARKS
COOPERSTOWN    FAIR      48  39  71 S14       29.99F
VALLEY CITY    FAIR      54  36  50 SE14      30.00F
OAKES          FAIR      55  39  54 S7        29.99F
GWINNER        SUNNY     57  37  47 SE13      30.01F
SHEYENNE NWR     N/A     56  38  50 S7        29.95S
BUFFALO        NOT AVBL
WYNDMERE       NOT AVBL
 ***** THE ABOVE OBSERVATIONS ARE NON NWS ARE NOT QUALITY
       CONTROLLED AND MAY MIS-REPORT RAIN FOR SNOW...
$$

  *****  WEATHER ACROSS NORTHERN MINNESOTA  *****

CITY           SKY/WX    TMP DP  RH WIND       PRES   REMARKS
FLAG ISLAND    SUNNY     36  30  80 SE3       30.03S
WARROAD        SUNNY     43  34  70 CALM      30.04F
ROSEAU         SUNNY     43  34  70 CALM      30.04S
HALLOCK        CLOUDY    43  36  75 CALM      30.03F
THF RVR FALLS  SUNNY     46  34  61 CALM      30.03F
HALSTAD          N/A     52  34  49 S6          N/A
FOSSTON        SUNNY     52  34  50 CALM      30.02F
BAUDETTE       SUNNY     42  31  64 CALM      30.04F
WASKISH        SUNNY     45  37  76 NW3       30.04F
CROOKSTON      SUNNY     48  37  66 CALM      30.02F
$$
  *****  WEATHER ACROSS CENTRAL AND WEST MINNESOTA  *****

CITY           SKY/WX    TMP DP  RH WIND       PRES   REMARKS
BEMIDJI        SUNNY     51  32  48 SE3       30.03S
PARK RAPIDS    SUNNY     52  34  50 SE5       30.02F
WADENA         SUNNY     54  36  50 SE6       30.02F
DETROIT LAKES  SUNNY     52  34  50 SE5       30.02F
MOORHEAD       NOT AVBL
FERGUS FALLS   SUNNY     55  30  38 SE10      29.99F
ELBOW LAKE     FAIR      55  36  49 E10       30.01F
MORRIS MN      SUNNY     59  37  44 E15       30.01S
STAPLES        SUNNY     54  36  50 SE5       30.03F
WHEATON        SUNNY     55  41  58 E3        30.05S
$$
  *****  WEATHER ELSEWHERE ACROSS MINNESOTA  *****

CITY           SKY/WX    TMP DP  RH WIND       PRES   REMARKS
DULUTH         SUNNY     50  36  58 N3        30.03S
INTRNTL FALLS  SUNNY     44  31  60 W8        30.04F
ELY            SUNNY     46  34  61 W3        30.03S
CLOQUET        SUNNY     50  36  57 CALM      30.03F
BRAINERD       SUNNY     59  35  40 CALM      30.04F
HIBBING        SUNNY     50  36  58 N5        30.04S
ALEXANDRIA     SUNNY     55  36  48 E10       30.04S
SAINT CLOUD    SUNNY     55  39  54 E7        30.05S
MINNEAPOLIS    MOSUNNY   59  47  64 E5        30.04F
$$

  *****  WEATHER ACROSS SOUTH DAKOTA  *****

CITY           SKY/WX    TMP DP  RH WIND       PRES   REMARKS
SIOUX FALLS    MOSUNNY   66  32  28 E16       29.99F
BROOKINGS      NOT AVBL
WATERTOWN      SUNNY     57  35  43 E7        30.00S
HURON          SUNNY     60  33  36 SE6       29.99F
SISSETON         N/A     56  39  53 S10       30.01F
ABERDEEN       SUNNY     51  36  56 VRB3      30.01S
MITCHELL       SUNNY     58  36  43 CALM      30.00F
PIERRE         SUNNY     57  29  34 SE9       29.96S
MOBRIDGE       SUNNY     54  33  45 SE10      29.94F
RAPID CITY     SUNNY     56  35  45 CALM      29.91S
$$

  *****  SOME WEATHER IN NEARBY STATES *****

CITY           SKY/WX    TMP DP  RH WIND       PRES   REMARKS
GLASGOW MT     MOSUNNY   52  30  43 NW16G25   29.90R
GREAT FALLS MT SUNNY     48  19  31 SW25G31   30.04R
CHEYENNE WY    SUNNY     59  35  40 W16G22    30.09R
SCOTTSBLUFF NE SUNNY     57  41  55 CALM      30.01S
OMAHA NE       PTSUNNY   69  50  50 S13       29.99S
DES MOINES IA  MOSUNNY   72  49  44 SW12G20   30.05S
DAVENPORT IA   MOSUNNY   69  42  37 S14       30.13F
CHICAGO IL     PTSUNNY   63  34  33 S10       30.20F
EAU CLAIRE WI  PTSUNNY   61  51  70 VRB7      30.05S
LA CROSSE WI   RAIN      54  48  80 S7        30.08S
$$

  *****  SOME NATIONAL WEATHER *****

CITY           SKY/WX    TMP DP  RH WIND       PRES   REMARKS
LA GUARDIA NY  PTSUNNY   51  26  37 NE10      30.50R
RALEIGH NC     PTSUNNY   60  39  45 NE15G24   30.27R
ATLANTA GA     MOSUNNY   63  39  41 E18G30    30.24R
NEW ORLEANS LA MOSUNNY   72  60  66 SE9       30.19R
OKLAHOMA CITY  CLOUDY    63  55  75 S9        30.10S
ALBUQUERQUE NM PTSUNNY   54  45  71 S7        30.16R
SALT LAKE CITY PTSUNNY   56  43  61 N7        30.12R
LOS ANGELES CA MOSUNNY   61  56  83 E3        30.06R
BOISE ID       SUNNY     46  32  58 W8        30.26R
SEATTLE WA     PTSUNNY   44  38  79 SE9       30.29R
$$

*** WEATHER ACROSS MANITOBA...SASKATCHEWAN AND ONTARIO ***
                ***ONTARIO***

CITY           SKY/WX    TMP DP  RH WIND       PRES   REMARKS
GERALDTON      PTSUNNY   39  36  87 SW14      29.96F
THUNDER BAY    MOSUNNY   39  36  87 VRB2      30.02S
SIOUX LOOKOUT  PTSUNNY   37  27  65 W10       29.99R
TORONTO        PTSUNNY   50  28  43 SE9       30.37F
BIG TROUT LK   LGT RAIN  36  32  87 W13G20    29.72R
PICKLE LAKE    FLURRIES  34  30  86 W18G37    29.87R WCI  23
DRYDEN         MOSUNNY   37  30  75 W9        29.99S
KENORA         PTSUNNY   37  27  65 W10       30.02S
$$
                *** MANITOBA***

CITY           SKY/WX    TMP DP  RH WIND       PRES   REMARKS
BRANDON        PTSUNNY   39  32  75 E9        29.99F
DAUPHIN        SUNNY     37  30  75 W3        29.99S
ISLAND LAKE    FLURRIES  34  34 100 NW10      29.86
PILOT MOUND      N/A     41  34  75 E10         N/A
THE PAS        MOSUNNY   34  28  80 NW5       29.96R
THOMPSON       CLOUDY    32  32 100 N8        29.91R WCI  25
WINNIPEG       PTSUNNY   41  30  65 NW5       30.04S
LYNN LAKE      SUNNY     32  25  74 CALM      29.93R
CHURCHILL      MOSUNNY   19  16  86 NE9       29.96S WCI   9
GILLAM         FLURRIES N/A N/A N/A N3          N/A
$$
                ***SASKATCHEWAN***

CITY           SKY/WX    TMP DP  RH WIND       PRES   REMARKS
ESTEVAN        CLOUDY    41  37  87 E13       29.85F
KINDERSLEY     PTSUNNY   46  34  61 SW9       29.74R
LLOYDMINSTER   CLOUDY    37  34  87 E3        29.83R
PRINCE ALBERT  PTSUNNY   34  30  86 E5        29.90R
REGINA         PTSUNNY   43  36  75 E17       29.82F



USA.gov is the U.S. government's official web portal to all federal, state and local government web resources and services.